THOR ABLESTAR DEB, 2620

Orbit data source: Space-Track

THOR ABLESTAR DEB, 2620 is space debris in LEO originally from a launch on Thu, 05 Dec 1963 UTC launched from the Air Force Western Test Range (AFWTR). Debris objects in space refer to the collection of defunct objects orbiting the Earth. Examples of debris include non-operational satellites, rocket bodies, and fragments generated from explosions, collisions, or faulty payload assembly.

Loading next visibility...
Identifier
2620, 1963-049H
Orbit
LEO
Country
Flag of USUS
Related business
Manufacturer
Unknown
Mission
Spacecraft
Bus & Motor
Unknown
Mass
Unknown
Launch date (UTC)
1963-12-05 (62 years ago)
Launch vehicle
Unknown
Launch site
Air Force Western Test Range (AFWTR)
Object type
Payload
Rocket body
Debris
Shape & HBR
Unknown
Radar Cross Section
Small (<0.1 m²)

Expand to show TLE details & history
Last TLE update: 1 day ago

TLE from 1 day ago
0 THOR ABLESTAR DEB
1 02620U 63049H   25242.02830247  .00000277  00000-0  36063-3 0  9990
2 02620  89.9096  75.0321 0013777 226.8391 287.6536 13.59575307 50824
Epoch: 2025-08-30T00:40Z
TLE epoch observation values (Epoch: 2025-08-30T00:40:45.333Z)
Latitude
25.687°
Longitude
-93.66853°
Altitude
1,037.332 km
Speed
7.337 km/s
True Right ascension
16h 59m 57s
True Declination
25° 33' 29"
Sunlit
Object was in daylight at epoch
Visualization orbit readout
Latitude
Unknown
Longitude
Unknown
Altitude
Unknown
Speed
Unknown
Apparent Right ascension
Unknown
Apparent Declination
Unknown
Sunlit
N/A
Visualization observer readout
Local Sidereal Time
18:06:08
Azimuth
Unknown
Elevation
Unknown
Doppler factor
Unknown
Orbital elements
Apogee altitude
1,044.484 km
Perigee altitude
1,024.06 km
Semi-major axis
7,412.409 km
Eccentricity
0.00138
Inclination
89.9096°
RAAN
75.0321°
Arg. of periapsis
226.8391°
True anomaly
287.50308°
Mean anomaly
287.6536°
Eccentric anomaly
287.57835°
Mean motion
3.40098 °/min
Orbital period
105.85 mins
BSTAR
0.00036063
Loading maneuver chart data...
Computing Atmospheric mass density...
Loading historical data...
Loading historical data...
Loading historical data...
Loading historical data...
Loading historical data...
Loading historical data...
Loading historical data...

Documentation

Showing up to 5 results
|